| time (UTC) | temp C | wind direction | speed KPH | gust KPH | rain 1hr cm | rain 24hr cm | rain mn cm | humidity % | barometer mb |
| 20260906161503 | 24 | 75 | 3.2 | 4.8 | 0.00 | 0.00 | 0.00 | 70 | 1019.6 |
| 20260906161003 | 23 | 72 | 3.2 | 4.8 | 0.00 | 0.00 | 0.00 | 73 | 1019.6 |
| 20260906160719 | 23 | 67 | 4.8 | 4.8 | 0.00 | 0.00 | 0.00 | 71 | 1019.6 |
| 20260906160003 | 23 | 65 | 1.6 | 6.4 | 0.00 | 0.00 | 0.00 | 72 | 1019.6 |
| 20260906155503 | 23 | 180 | 3.2 | 3.2 | 0.00 | 0.00 | 0.00 | 75 | 1019.6 |
| 20260906155003 | 22 | 182 | 0.0 | 3.2 | 0.00 | 0.00 | 0.00 | 74 | 1019.6 |
| 20260906154503 | 23 | 179 | 4.8 | 4.8 | 0.00 | 0.00 | 0.00 | 75 | 1019.6 |
| 20260906154003 | 23 | 181 | 3.2 | 4.8 | 0.00 | 0.00 | 0.00 | 72 | 1020.0 |
| 20260906153503 | 23 | 207 | 4.8 | 6.4 | 0.00 | 0.00 | 0.00 | 71 | 1019.6 |
| 20260906153003 | 23 | 191 | 3.2 | 6.4 | 0.00 | 0.00 | 0.00 | 74 | 1019.6 |
| 20260906152502 | 23 | 229 | 4.8 | 6.4 | 0.00 | 0.00 | 0.00 | 72 | 1019.6 |
| 20260906152217 | 23 | 357 | 3.2 | 3.2 | 0.00 | 0.00 | 0.00 | 74 | 1019.6 |
| 20260906151504 | 23 | 228 | 0.0 | 3.2 | 0.00 | 0.00 | 0.00 | 74 | 1020.0 |
| 20260906151003 | 22 | 203 | 3.2 | 6.4 | 0.00 | 0.00 | 0.00 | 75 | 1020.0 |
| 20260906150503 | 22 | 245 | 3.2 | 3.2 | 0.00 | 0.00 | 0.00 | 76 | 1020.0 |
| 20260906150003 | 22 | 255 | 1.6 | 3.2 | 0.00 | 0.00 | 0.00 | 76 | 1019.6 |
| 20260906145503 | 23 | 5 | 4.8 | 4.8 | 0.00 | 0.00 | 0.00 | 74 | 1020.0 |
| 20260906145003 | 22 | 177 | 4.8 | 4.8 | 0.00 | 0.00 | 0.00 | 77 | 1019.6 |
| 20260906144503 | 22 | 194 | 9.7 | 9.7 | 0.00 | 0.00 | 0.00 | 76 | 1019.6 |
| 20260906144217 | 22 | 44 | 4.8 | 4.8 | 0.00 | 0.00 | 0.00 | 76 | 1019.3 |
| 20260906143718 | 22 | 9 | 0.0 | 6.4 | 0.00 | 0.00 | 0.00 | 79 | 1019.6 |
| 20260906143003 | 22 | 358 | 0.0 | 6.4 | 0.00 | 0.00 | 0.00 | 78 | 1019.6 |
| 20260906142503 | 22 | 46 | 8.0 | 8.0 | 0.00 | 0.00 | 0.00 | 79 | 1019.6 |
| 20260906142003 | 22 | 118 | 1.6 | 4.8 | 0.00 | 0.00 | 0.00 | 80 | 1019.6 |
| 20260906141503 | 21 | 353 | 1.6 | 4.8 | 0.00 | 0.00 | 0.00 | 81 | 1019.6 |
| 20260906141003 | 21 | 168 | 3.2 | 6.4 | 0.00 | 0.00 | 0.00 | 82 | 1019.6 |
| 20260906140503 | 21 | 21 | 3.2 | 4.8 | 0.00 | 0.00 | 0.00 | 83 | 1019.6 |
| 20260906140003 | 21 | 44 | 3.2 | 8.0 | 0.00 | 0.00 | 0.00 | 83 | 1019.6 |
| 20260906135503 | 20 | 55 | 3.2 | 4.8 | 0.00 | 0.00 | 0.00 | 85 | 1020.0 |
| 20260906135003 | 20 | 70 | 3.2 | 3.2 | 0.00 | 0.00 | 0.00 | 86 | 1020.3 |
| 20260906134503 | 20 | 35 | 1.6 | 3.2 | 0.00 | 0.00 | 0.00 | 92 | 1020.0 |
| 20260906134219 | 18 | 92 | 3.2 | 3.2 | 0.00 | 0.00 | 0.00 | 96 | 1020.0 |
| 20260906133503 | 18 | 44 | 3.2 | 3.2 | 0.00 | 0.00 | 0.00 | 98 | 1020.3 |
| 20260906133219 | 18 | 59 | 3.2 | 3.2 | 0.00 | 0.00 | 0.00 | 98 | 1020.3 |
| 20260906132502 | 18 | 28 | 1.6 | 3.2 | 0.00 | 0.00 | 0.00 | 98 | 1020.0 |
| 20260906132219 | 17 | 25 | 3.2 | 3.2 | 0.00 | 0.00 | 0.00 | 98 | 1020.3 |
| 20260906131503 | 17 | 52 | 3.2 | 4.8 | 0.00 | 0.00 | 0.00 | 99 | 1020.3 |
| 20260906131003 | 17 | 86 | 3.2 | 3.2 | 0.00 | 0.00 | 0.00 | 99 | 1020.0 |
| 20260906130718 | 17 | 39 | 3.2 | 4.8 | 0.00 | 0.00 | 0.00 | 98 | 1020.0 |
| 20260906130003 | 16 | 87 | 3.2 | 3.2 | 0.00 | 0.00 | 0.00 | 99 | 1019.6 |
| 20260906125718 | 16 | 58 | 1.6 | 3.2 | 0.00 | 0.00 | 0.00 | 98 | 1020.0 |
| 20260906125003 | 16 | 184 | 3.2 | 3.2 | 0.00 | 0.00 | 0.00 | 98 | 1020.3 |
| 20260906124503 | 16 | 51 | 0.0 | 3.2 | 0.00 | 0.00 | 0.00 | 98 | 1020.3 |
| 20260906124003 | 16 | 52 | 1.6 | 3.2 | 0.00 | 0.00 | 0.00 | 98 | 1020.0 |
| 20260906123503 | 16 | 18 | 1.6 | 1.6 | 0.00 | 0.00 | 0.00 | 98 | 1020.3 |
| 20260906123003 | 15 | 103 | 0.0 | 0.0 | 0.00 | 0.00 | 0.00 | 98 | 1020.3 |
| 20260906122502 | 15 | 55 | 0.0 | 1.6 | 0.00 | 0.00 | 0.00 | 98 | 1020.0 |
| 20260906122218 | 15 | 111 | 0.0 | 3.2 | 0.00 | 0.00 | 0.00 | 98 | 1019.6 |
| 20260906121503 | 15 | 115 | 0.0 | 3.2 | 0.00 | 0.00 | 0.00 | 98 | 1020.0 |
| 20260906121003 | 15 | 107 | 0.0 | 1.6 | 0.00 | 0.00 | 0.00 | 98 | 1020.0 |
| 20260906120503 | 15 | 22 | 0.0 | 0.0 | 0.00 | 0.00 | 0.00 | 98 | 1019.6 |
| 20260906120218 | 14 | 58 | 0.0 | 1.6 | 0.00 | 0.00 | 0.00 | 98 | 1019.6 |
| 20260906115503 | 14 | 141 | 1.6 | 1.6 | 0.00 | 0.00 | 0.00 | 98 | 1020.0 |
| 20260906115003 | 14 | 48 | 0.0 | 1.6 | 0.00 | 0.00 | 0.00 | 98 | 1019.6 |
| 20260906114503 | 14 | 60 | 1.6 | 3.2 | 0.00 | 0.00 | 0.00 | 98 | 1019.6 |
| 20260906114218 | 14 | 166 | 3.2 | 3.2 | 0.00 | 0.00 | 0.00 | 98 | 1019.6 |
| 20260906113503 | 13 | 0 | 0.0 | 0.0 | 0.00 | 0.00 | 0.00 | 99 | 1019.3 |
| 20260906113003 | 13 | 89 | 0.0 | 1.6 | 0.00 | 0.00 | 0.00 | 99 | 1019.3 |
| 20260906112502 | 13 | 94 | 1.6 | 1.6 | 0.00 | 0.00 | 0.00 | 99 | 1019.3 |
| 20260906112003 | 13 | 32 | 0.0 | 1.6 | 0.00 | 0.00 | 0.00 | 99 | 1019.3 |
| 20260906111503 | 14 | 222 | 1.6 | 3.2 | 0.00 | 0.00 | 0.00 | 99 | 1019.0 |
| 20260906111003 | 14 | 133 | 0.0 | 1.6 | 0.00 | 0.00 | 0.00 | 99 | 1019.0 |
| 20260906110503 | 14 | 348 | 0.0 | 3.2 | 0.00 | 0.00 | 0.00 | 99 | 1019.0 |
| 20260906110003 | 14 | 47 | 0.0 | 1.6 | 0.00 | 0.00 | 0.00 | 98 | 1019.0 |
| 20260906105503 | 14 | 81 | 0.0 | 1.6 | 0.00 | 0.00 | 0.00 | 98 | 1019.0 |
| 20260906105003 | 14 | 70 | 0.0 | 1.6 | 0.00 | 0.00 | 0.00 | 98 | 1019.0 |
| 20260906104503 | 14 | 24 | 0.0 | 1.6 | 0.00 | 0.00 | 0.00 | 98 | 1019.0 |
| 20260906104003 | 14 | 114 | 0.0 | 1.6 | 0.00 | 0.00 | 0.00 | 98 | 1019.0 |
| 20260906103503 | 14 | 304 | 0.0 | 1.6 | 0.00 | 0.00 | 0.00 | 98 | 1019.0 |
| 20260906103003 | 14 | 337 | 0.0 | 3.2 | 0.00 | 0.00 | 0.00 | 98 | 1019.3 |
| 20260906102503 | 14 | 243 | 0.0 | 0.0 | 0.00 | 0.00 | 0.00 | 98 | 1019.0 |
| 20260906102003 | 14 | 154 | 0.0 | 1.6 | 0.00 | 0.00 | 0.00 | 98 | 1019.3 |
| 20260906101503 | 14 | 68 | 1.6 | 1.6 | 0.00 | 0.00 | 0.00 | 98 | 1019.0 |
| 20260906101003 | 14 | 136 | 0.0 | 1.6 | 0.00 | 0.00 | 0.00 | 98 | 1019.0 |
| 20260906100503 | 14 | 32 | 0.0 | 1.6 | 0.00 | 0.00 | 0.00 | 98 | 1019.0 |
| 20260906100217 | 13 | 57 | 1.6 | 3.2 | 0.00 | 0.00 | 0.00 | 98 | 1019.3 |
| 20260906095502 | 13 | 104 | 0.0 | 0.0 | 0.00 | 0.00 | 0.00 | 99 | 1019.3 |
| 20260906095003 | 14 | 50 | 0.0 | 1.6 | 0.00 | 0.00 | 0.00 | 98 | 1019.0 |
| 20260906094503 | 14 | 129 | 0.0 | 3.2 | 0.00 | 0.00 | 0.00 | 98 | 1019.0 |
| 20260906094003 | 14 | 158 | 0.0 | 1.6 | 0.00 | 0.00 | 0.00 | 98 | 1019.0 |
| 20260906093718 | 14 | 104 | 0.0 | 1.6 | 0.00 | 0.00 | 0.00 | 98 | 1018.6 |
| 20260906093003 | 14 | 350 | 0.0 | 3.2 | 0.00 | 0.00 | 0.00 | 98 | 1019.0 |
| 20260906092503 | 14 | 95 | 1.6 | 3.2 | 0.00 | 0.00 | 0.00 | 98 | 1019.0 |
| 20260906092003 | 14 | 66 | 1.6 | 1.6 | 0.00 | 0.00 | 0.00 | 98 | 1019.0 |
| 20260906091503 | 14 | 123 | 1.6 | 3.2 | 0.00 | 0.00 | 0.00 | 98 | 1019.0 |
| 20260906091003 | 14 | 116 | 0.0 | 0.0 | 0.00 | 0.00 | 0.00 | 98 | 1019.0 |
| 20260906090503 | 14 | 85 | 0.0 | 1.6 | 0.00 | 0.00 | 0.00 | 98 | 1019.0 |
| 20260906090217 | 14 | 33 | 1.6 | 3.2 | 0.00 | 0.00 | 0.00 | 98 | 1019.0 |
| 20260906085503 | 14 | 50 | 3.2 | 3.2 | 0.00 | 0.00 | 0.00 | 98 | 1019.0 |
| 20260906085003 | 14 | 101 | 0.0 | 1.6 | 0.00 | 0.00 | 0.00 | 98 | 1019.0 |
| 20260906084503 | 14 | 131 | 3.2 | 3.2 | 0.00 | 0.00 | 0.00 | 98 | 1018.6 |
| 20260906084003 | 13 | 133 | 0.0 | 1.6 | 0.00 | 0.00 | 0.00 | 98 | 1018.6 |
| 20260906083503 | 13 | 165 | 1.6 | 3.2 | 0.00 | 0.00 | 0.00 | 98 | 1018.6 |
| 20260906083219 | 14 | 47 | 1.6 | 3.2 | 0.00 | 0.00 | 0.00 | 98 | 1019.0 |
| 20260906082502 | 13 | 107 | 3.2 | 3.2 | 0.00 | 0.00 | 0.00 | 98 | 1018.6 |
| 20260906082219 | 13 | 114 | 1.6 | 3.2 | 0.00 | 0.00 | 0.00 | 98 | 1018.6 |
| 20260906081503 | 13 | 136 | 1.6 | 3.2 | 0.00 | 0.00 | 0.00 | 98 | 1019.0 |
| 20260906081003 | 13 | 191 | 1.6 | 3.2 | 0.00 | 0.00 | 0.00 | 98 | 1018.6 |
| 20260906080718 | 14 | 82 | 1.6 | 3.2 | 0.00 | 0.00 | 0.00 | 98 | 1018.6 |
| 20260906080003 | 14 | 133 | 1.6 | 3.2 | 0.00 | 0.00 | 0.00 | 98 | 1018.6 |
| 20260906075503 | 14 | 155 | 0.0 | 1.6 | 0.00 | 0.00 | 0.00 | 98 | 1018.6 |
| 20260906075003 | 14 | 117 | 1.6 | 3.2 | 0.00 | 0.00 | 0.00 | 98 | 1018.6 |
| 20260906074503 | 13 | 171 | 3.2 | 3.2 | 0.00 | 0.00 | 0.00 | 98 | 1018.6 |
| 20260906074003 | 13 | 168 | 0.0 | 1.6 | 0.00 | 0.00 | 0.00 | 98 | 1018.6 |
| 20260906073503 | 14 | 135 | 3.2 | 4.8 | 0.00 | 0.00 | 0.00 | 98 | 1018.6 |
| 20260906073002 | 14 | 38 | 0.0 | 3.2 | 0.00 | 0.00 | 0.00 | 98 | 1018.6 |
| 20260906072503 | 14 | 28 | 0.0 | 3.2 | 0.00 | 0.00 | 0.00 | 98 | 1018.6 |
| 20260906072002 | 14 | 107 | 3.2 | 3.2 | 0.00 | 0.00 | 0.00 | 98 | 1019.0 |
| 20260906071503 | 14 | 230 | 0.0 | 3.2 | 0.00 | 0.00 | 0.00 | 98 | 1018.6 |
| 20260906071003 | 14 | 25 | 0.0 | 3.2 | 0.00 | 0.00 | 0.00 | 98 | 1018.6 |
| 20260906070503 | 14 | 73 | 3.2 | 3.2 | 0.00 | 0.00 | 0.00 | 98 | 1018.6 |
| 20260906070003 | 14 | 93 | 0.0 | 1.6 | 0.00 | 0.00 | 0.00 | 97 | 1019.0 |
| 20260906065503 | 14 | 225 | 0.0 | 3.2 | 0.00 | 0.00 | 0.00 | 98 | 1018.6 |
| 20260906065218 | 13 | 175 | 3.2 | 3.2 | 0.00 | 0.00 | 0.00 | 98 | 1018.6 |
| 20260906064503 | 13 | 79 | 0.0 | 3.2 | 0.00 | 0.00 | 0.00 | 98 | 1018.3 |
| 20260906064003 | 13 | 165 | 0.0 | 3.2 | 0.00 | 0.00 | 0.00 | 98 | 1018.6 |
| 20260906063503 | 13 | 100 | 0.0 | 3.2 | 0.00 | 0.00 | 0.00 | 98 | 1018.3 |
| 20260906063003 | 13 | 0 | 1.6 | 4.8 | 0.00 | 0.00 | 0.00 | 98 | 1018.3 |
| 20260906062503 | 13 | 167 | 0.0 | 3.2 | 0.00 | 0.00 | 0.00 | 98 | 1018.3 |
| 20260906062218 | 13 | 29 | 0.0 | 0.0 | 0.00 | 0.00 | 0.00 | 98 | 1018.6 |
| 20260906061717 | 14 | 154 | 0.0 | 1.6 | 0.00 | 0.00 | 0.00 | 97 | 1018.3 |
| 20260906061218 | 14 | 102 | 0.0 | 0.0 | 0.00 | 0.00 | 0.00 | 97 | 1018.6 |
| 20260906060503 | 14 | 102 | 0.0 | 0.0 | 0.00 | 0.00 | 0.00 | 97 | 1018.6 |
| 20260906060003 | 15 | 117 | 0.0 | 0.0 | 0.00 | 0.00 | 0.00 | 97 | 1018.3 |
| 20260906055710 | 15 | 135 | 0.0 | 0.0 | 0.00 | 0.00 | 0.00 | 96 | 1018.6 |
| 20260906055648 | 14 | 113 | 0.0 | 0.0 | 0.00 | 0.00 | 0.00 | 96 | 1018.6 |
| 20260906054719 | 14 | 37 | 0.0 | 0.0 | 0.00 | 0.00 | 0.00 | 96 | 1018.3 |
| 20260906054003 | 14 | 43 | 0.0 | 1.6 | 0.00 | 0.00 | 0.00 | 97 | 1018.3 |
| 20260906053503 | 14 | 34 | 0.0 | 0.0 | 0.00 | 0.00 | 0.00 | 97 | 1018.3 |
| 20260906053003 | 13 | 117 | 0.0 | 0.0 | 0.00 | 0.00 | 0.00 | 97 | 1017.9 |
| 20260906052503 | 13 | 44 | 0.0 | 0.0 | 0.00 | 0.00 | 0.00 | 97 | 1017.9 |
| 20260906052003 | 13 | 63 | 0.0 | 0.0 | 0.00 | 0.00 | 0.00 | 97 | 1017.9 |
| 20260906051503 | 14 | 117 | 0.0 | 0.0 | 0.00 | 0.00 | 0.00 | 97 | 1017.9 |
| 20260906051003 | 14 | 117 | 0.0 | 0.0 | 0.00 | 0.00 | 0.00 | 97 | 1017.9 |
| 20260906050503 | 14 | 89 | 0.0 | 0.0 | 0.00 | 0.00 | 0.00 | 97 | 1017.9 |
| 20260906050218 | 14 | 62 | 0.0 | 0.0 | 0.00 | 0.00 | 0.00 | 97 | 1017.9 |
| 20260906045502 | 14 | 128 | 0.0 | 0.0 | 0.00 | 0.00 | 0.00 | 97 | 1017.9 |
| 20260906045003 | 14 | 117 | 0.0 | 0.0 | 0.00 | 0.00 | 0.00 | 97 | 1017.9 |
| 20260906044503 | 14 | 135 | 0.0 | 0.0 | 0.00 | 0.00 | 0.00 | 96 | 1017.6 |
| 20260906044003 | 14 | 135 | 0.0 | 0.0 | 0.00 | 0.00 | 0.00 | 96 | 1017.9 |
| 20260906043503 | 14 | 144 | 0.0 | 1.6 | 0.00 | 0.00 | 0.00 | 96 | 1017.9 |
| 20260906043003 | 15 | 44 | 0.0 | 0.0 | 0.00 | 0.00 | 0.00 | 96 | 1017.6 |
| 20260906042503 | 15 | 38 | 0.0 | 0.0 | 0.00 | 0.00 | 0.00 | 96 | 1017.6 |
| 20260906042003 | 15 | 114 | 0.0 | 1.6 | 0.00 | 0.00 | 0.00 | 96 | 1017.9 |
| 20260906041503 | 15 | 98 | 0.0 | 1.6 | 0.00 | 0.00 | 0.00 | 96 | 1017.6 |
| 20260906041003 | 15 | 154 | 0.0 | 0.0 | 0.00 | 0.00 | 0.00 | 96 | 1017.6 |
| 20260906040503 | 15 | 44 | 0.0 | 0.0 | 0.00 | 0.00 | 0.00 | 96 | 1017.6 |
| 20260906040003 | 15 | 133 | 0.0 | 1.6 | 0.00 | 0.00 | 0.00 | 95 | 1017.6 |
| 20260906035502 | 15 | 51 | 0.0 | 0.0 | 0.00 | 0.00 | 0.00 | 95 | 1017.6 |
| 20260906035003 | 15 | 62 | 0.0 | 0.0 | 0.00 | 0.00 | 0.00 | 95 | 1017.9 |
| 20260906034503 | 15 | 50 | 0.0 | 0.0 | 0.00 | 0.00 | 0.00 | 95 | 1017.6 |
| 20260906034003 | 15 | 62 | 0.0 | 0.0 | 0.00 | 0.00 | 0.00 | 95 | 1017.6 |
| 20260906033503 | 15 | 37 | 0.0 | 1.6 | 0.00 | 0.00 | 0.00 | 95 | 1017.3 |
| 20260906033219 | 15 | 44 | 0.0 | 0.0 | 0.00 | 0.00 | 0.00 | 94 | 1017.3 |
| 20260906032502 | 15 | 124 | 0.0 | 0.0 | 0.00 | 0.00 | 0.00 | 94 | 1017.3 |
| 20260906032219 | 15 | 44 | 0.0 | 0.0 | 0.00 | 0.00 | 0.00 | 94 | 1017.3 |
| 20260906031503 | 16 | 44 | 0.0 | 0.0 | 0.00 | 0.00 | 0.00 | 94 | 1017.6 |
| 20260906031003 | 16 | 44 | 0.0 | 0.0 | 0.00 | 0.00 | 0.00 | 94 | 1017.3 |
| 20260906030503 | 16 | 55 | 0.0 | 0.0 | 0.00 | 0.00 | 0.00 | 94 | 1017.3 |
| 20260906030219 | 16 | 135 | 0.0 | 0.0 | 0.00 | 0.00 | 0.00 | 94 | 1017.3 |
| 20260906025503 | 16 | 129 | 0.0 | 0.0 | 0.00 | 0.00 | 0.00 | 93 | 1017.6 |
| 20260906025003 | 16 | 135 | 0.0 | 0.0 | 0.00 | 0.00 | 0.00 | 93 | 1017.3 |
| 20260906024718 | 16 | 150 | 0.0 | 1.6 | 0.00 | 0.00 | 0.00 | 92 | 1016.9 |
| 20260906024003 | 16 | 119 | 0.0 | 0.0 | 0.00 | 0.00 | 0.00 | 92 | 1016.9 |
| 20260906023503 | 17 | 66 | 0.0 | 0.0 | 0.00 | 0.00 | 0.00 | 91 | 1017.3 |
| 20260906023003 | 17 | 66 | 0.0 | 0.0 | 0.00 | 0.00 | 0.00 | 90 | 1017.3 |
| 20260906022503 | 17 | 104 | 0.0 | 0.0 | 0.00 | 0.00 | 0.00 | 90 | 1016.9 |
| 20260906022003 | 17 | 75 | 0.0 | 0.0 | 0.00 | 0.00 | 0.00 | 88 | 1016.9 |
| 20260906021502 | 17 | 89 | 0.0 | 0.0 | 0.00 | 0.00 | 0.00 | 88 | 1017.3 |
| 20260906021218 | 18 | 129 | 0.0 | 0.0 | 0.00 | 0.00 | 0.00 | 88 | 1017.3 |
| 20260906020503 | 18 | 112 | 0.0 | 0.0 | 0.00 | 0.00 | 0.00 | 88 | 1016.9 |
| 20260906020003 | 18 | 142 | 0.0 | 0.0 | 0.00 | 0.00 | 0.00 | 88 | 1016.9 |
| 20260906015503 | 17 | 60 | 3.2 | 3.2 | 0.00 | 0.00 | 0.00 | 90 | 1016.9 |
| 20260906015003 | 17 | 83 | 0.0 | 1.6 | 0.00 | 0.00 | 0.00 | 90 | 1016.9 |
| 20260906014503 | 18 | 44 | 0.0 | 1.6 | 0.00 | 0.00 | 0.00 | 90 | 1016.9 |
| 20260906014219 | 18 | 77 | 0.0 | 0.0 | 0.00 | 0.00 | 0.00 | 90 | 1016.9 |
| 20260906013503 | 18 | 142 | 0.0 | 0.0 | 0.00 | 0.00 | 0.00 | 90 | 1016.9 |
| 20260906013003 | 18 | 135 | 0.0 | 0.0 | 0.00 | 0.00 | 0.00 | 89 | 1016.9 |
| 20260906012717 | 18 | 157 | 0.0 | 0.0 | 0.00 | 0.00 | 0.00 | 89 | 1016.6 |
| 20260906012002 | 18 | 104 | 0.0 | 0.0 | 0.00 | 0.00 | 0.00 | 89 | 1016.6 |
| 20260906011503 | 18 | 77 | 0.0 | 0.0 | 0.00 | 0.00 | 0.00 | 89 | 1016.6 |
| 20260906011218 | 18 | 37 | 0.0 | 0.0 | 0.00 | 0.00 | 0.00 | 87 | 1016.6 |
| 20260906010503 | 19 | 50 | 0.0 | 0.0 | 0.00 | 0.00 | 0.00 | 86 | 1016.6 |
| 20260906010003 | 20 | 103 | 0.0 | 0.0 | 0.00 | 0.00 | 0.00 | 84 | 1016.6 |
| 20260906005719 | 20 | 103 | 0.0 | 0.0 | 0.00 | 0.00 | 0.00 | 84 | 1016.3 |
| 20260906005003 | 20 | 135 | 0.0 | 0.0 | 0.00 | 0.00 | 0.00 | 83 | 1016.3 |
| 20260906004503 | 20 | 37 | 0.0 | 0.0 | 0.00 | 0.00 | 0.00 | 81 | 1016.6 |
| 20260906004003 | 20 | 33 | 1.6 | 1.6 | 0.00 | 0.00 | 0.00 | 80 | 1016.3 |
| 20260906003503 | 20 | 30 | 0.0 | 3.2 | 0.00 | 0.00 | 0.00 | 80 | 1016.3 |
| 20260906003218 | 21 | 297 | 0.0 | 0.0 | 0.00 | 0.00 | 0.00 | 79 | 1016.3 |
| 20260906002503 | 21 | 34 | 0.0 | 1.6 | 0.00 | 0.00 | 0.00 | 78 | 1015.9 |
| 20260906002433 | 21 | 37 | 0.0 | 0.0 | 0.00 | 0.00 | 0.00 | 77 | 1016.3 |
| 20260906001503 | 21 | 75 | 0.0 | 1.6 | 0.00 | 0.00 | 0.00 | 76 | 1016.3 |
| 20260906001003 | 22 | 60 | 1.6 | 1.6 | 0.00 | 0.00 | 0.00 | 75 | 1016.3 |
| 20260906000503 | 22 | 14 | 0.0 | 1.6 | 0.00 | 0.00 | 0.00 | 75 | 1016.3 |
| 20260906000003 | 22 | 261 | 1.6 | 1.6 | 0.00 | 0.00 | 0.00 | 74 | 1016.3 |
| 20260905235719 | 22 | 28 | 0.0 | 3.2 | 0.00 | 0.00 | 0.00 | 73 | 1016.3 |
| 20260905235003 | 22 | 37 | 0.0 | 0.0 | 0.00 | 0.00 | 0.00 | 73 | 1015.9 |
| 20260905234503 | 23 | 93 | 0.0 | 1.6 | 0.00 | 0.00 | 0.00 | 72 | 1016.3 |
| 20260905234003 | 23 | 17 | 0.0 | 4.8 | 0.00 | 0.00 | 0.00 | 71 | 1015.9 |
| 20260905233503 | 23 | 53 | 3.2 | 3.2 | 0.00 | 0.00 | 0.00 | 71 | 1015.9 |
| 20260905233003 | 23 | 62 | 1.6 | 4.8 | 0.00 | 0.00 | 0.00 | 72 | 1015.9 |
| 20260905232502 | 23 | 74 | 3.2 | 3.2 | 0.00 | 0.00 | 0.00 | 72 | 1015.9 |
| 20260905232003 | 23 | 50 | 0.0 | 3.2 | 0.00 | 0.00 | 0.00 | 71 | 1016.3 |
| 20260905231503 | 23 | 195 | 1.6 | 3.2 | 0.00 | 0.00 | 0.00 | 73 | 1016.3 |
| 20260905231003 | 23 | 327 | 3.2 | 3.2 | 0.00 | 0.00 | 0.00 | 73 | 1016.3 |
| 20260905230503 | 23 | 62 | 0.0 | 0.0 | 0.00 | 0.00 | 0.00 | 73 | 1016.3 |
| 20260905230003 | 23 | 19 | 6.4 | 8.0 | 0.00 | 0.00 | 0.00 | 74 | 1016.3 |
| 20260905225503 | 23 | 119 | 0.0 | 1.6 | 0.00 | 0.00 | 0.00 | 75 | 1016.3 |
| 20260905225217 | 23 | 354 | 3.2 | 3.2 | 0.00 | 0.00 | 0.00 | 74 | 1015.9 |
| 20260905224503 | 23 | 48 | 0.0 | 3.2 | 0.00 | 0.00 | 0.00 | 76 | 1015.9 |
| 20260905224217 | 23 | 38 | 3.2 | 4.8 | 0.00 | 0.00 | 0.00 | 75 | 1015.9 |
| 20260905223503 | 23 | 7 | 6.4 | 6.4 | 0.00 | 0.00 | 0.00 | 74 | 1015.9 |
| 20260905223003 | 23 | 108 | 1.6 | 4.8 | 0.00 | 0.00 | 0.00 | 76 | 1015.9 |
| 20260905222718 | 24 | 95 | 9.7 | 9.7 | 0.00 | 0.00 | 0.00 | 75 | 1015.2 |
| 20260905222003 | 24 | 69 | 3.2 | 11.3 | 0.00 | 0.00 | 0.00 | 74 | 1015.6 |
| 20260905221503 | 23 | 71 | 4.8 | 4.8 | 0.00 | 0.00 | 0.00 | 76 | 1015.2 |
| 20260905221003 | 23 | 50 | 3.2 | 3.2 | 0.00 | 0.00 | 0.00 | 78 | 1015.2 |
| 20260905220503 | 23 | 52 | 1.6 | 6.4 | 0.00 | 0.00 | 0.00 | 78 | 1015.6 |
| 20260905220003 | 23 | 40 | 4.8 | 4.8 | 0.00 | 0.00 | 0.00 | 79 | 1015.9 |
| 20260905215503 | 23 | 32 | 3.2 | 3.2 | 0.00 | 0.00 | 0.00 | 80 | 1015.9 |
| 20260905215219 | 23 | 17 | 3.2 | 4.8 | 0.00 | 0.00 | 0.00 | 80 | 1015.6 |
| 20260905214503 | 23 | 29 | 1.6 | 1.6 | 0.00 | 0.00 | 0.00 | 81 | 1015.9 |
| 20260905214003 | 23 | 18 | 0.0 | 1.6 | 0.00 | 0.00 | 0.00 | 81 | 1015.9 |
| 20260905213503 | 22 | 81 | 0.0 | 0.0 | 0.00 | 0.00 | 0.00 | 81 | 1015.9 |
| 20260905213003 | 22 | 22 | 0.0 | 1.6 | 0.00 | 0.00 | 0.00 | 81 | 1015.9 |
| 20260905212503 | 22 | 33 | 0.0 | 1.6 | 0.00 | 0.00 | 0.00 | 81 | 1015.9 |
| 20260905212003 | 22 | 52 | 0.0 | 0.0 | 0.00 | 0.00 | 0.00 | 80 | 1016.3 |
| 20260905211718 | 22 | 96 | 0.0 | 1.6 | 0.00 | 0.00 | 0.00 | 80 | 1015.9 |
| 20260905211219 | 22 | 337 | 3.2 | 3.2 | 0.00 | 0.00 | 0.00 | 80 | 1016.3 |
| 20260905210503 | 23 | 49 | 3.2 | 3.2 | 0.00 | 0.00 | 0.00 | 80 | 1015.9 |
| 20260905210003 | 23 | 130 | 3.2 | 3.2 | 0.00 | 0.00 | 0.00 | 80 | 1015.9 |
| 20260905205502 | 23 | 334 | 0.0 | 0.0 | 0.00 | 0.00 | 0.00 | 79 | 1015.9 |
| 20260905205003 | 23 | 339 | 4.8 | 4.8 | 0.00 | 0.00 | 0.00 | 79 | 1015.9 |
| 20260905204503 | 23 | 43 | 0.0 | 0.0 | 0.00 | 0.00 | 0.00 | 79 | 1015.9 |
| 20260905204219 | 23 | 356 | 4.8 | 4.8 | 0.00 | 0.00 | 0.00 | 80 | 1015.9 |
| 20260905203503 | 23 | 37 | 0.0 | 1.6 | 0.00 | 0.00 | 0.00 | 81 | 1015.9 |
| 20260905203433 | 23 | 342 | 4.8 | 4.8 | 0.00 | 0.00 | 0.00 | 80 | 1015.9 |
| 20260905202717 | 23 | 336 | 9.7 | 9.7 | 0.00 | 0.00 | 0.00 | 81 | 1015.9 |
| 20260905202003 | 23 | 50 | 4.8 | 4.8 | 0.00 | 0.00 | 0.00 | 80 | 1015.9 |
| 20260905201503 | 23 | 348 | 3.2 | 3.2 | 0.00 | 0.00 | 0.00 | 81 | 1015.9 |
| 20260905201003 | 23 | 48 | 0.0 | 1.6 | 0.00 | 0.00 | 0.00 | 80 | 1015.9 |
| 20260905200503 | 23 | 81 | 3.2 | 4.8 | 0.00 | 0.00 | 0.00 | 80 | 1015.9 |
| 20260905200003 | 23 | 276 | 3.2 | 6.4 | 0.00 | 0.00 | 0.00 | 81 | 1016.3 |
| 20260905195932 | 23 | 338 | 4.8 | 6.4 | 0.00 | 0.00 | 0.00 | 81 | 1015.9 |
| 20260905195003 | 23 | 325 | 4.8 | 8.0 | 0.00 | 0.00 | 0.00 | 81 | 1016.3 |
| 20260905194503 | 23 | 60 | 4.8 | 4.8 | 0.00 | 0.00 | 0.00 | 80 | 1015.9 |
| 20260905194433 | 23 | 58 | 3.2 | 4.8 | 0.00 | 0.00 | 0.00 | 82 | 1015.9 |
| 20260905193503 | 23 | 5 | 1.6 | 1.6 | 0.00 | 0.00 | 0.00 | 81 | 1015.9 |
| 20260905193003 | 23 | 345 | 0.0 | 1.6 | 0.00 | 0.00 | 0.00 | 82 | 1015.9 |
| 20260905192502 | 23 | 51 | 3.2 | 6.4 | 0.00 | 0.00 | 0.00 | 81 | 1015.9 |
| 20260905192003 | 23 | 54 | 3.2 | 8.0 | 0.00 | 0.00 | 0.00 | 83 | 1015.9 |
| 20260905191503 | 23 | 182 | 3.2 | 4.8 | 0.00 | 0.00 | 0.00 | 82 | 1015.9 |
| 20260905191218 | 23 | 338 | 4.8 | 6.4 | 0.00 | 0.00 | 0.00 | 82 | 1015.9 |
| 20260905190719 | 23 | 349 | 1.6 | 1.6 | 0.00 | 0.00 | 0.00 | 82 | 1015.9 |
| 20260905190433 | 23 | 359 | 1.6 | 1.6 | 0.00 | 0.00 | 0.00 | 82 | 1015.9 |
| 20260905185503 | 23 | 13 | 3.2 | 4.8 | 0.00 | 0.00 | 0.00 | 82 | 1015.6 |
| 20260905185218 | 23 | 320 | 3.2 | 3.2 | 0.00 | 0.00 | 0.00 | 83 | 1015.9 |
| 20260905184503 | 23 | 344 | 4.8 | 4.8 | 0.00 | 0.00 | 0.00 | 82 | 1015.9 |
| 20260905184003 | 23 | 344 | 8.0 | 9.7 | 0.00 | 0.00 | 0.00 | 83 | 1015.9 |
| 20260905183503 | 23 | 349 | 6.4 | 8.0 | 0.00 | 0.00 | 0.00 | 82 | 1016.3 |
| 20260905183003 | 23 | 357 | 3.2 | 6.4 | 0.00 | 0.00 | 0.00 | 82 | 1015.9 |
| 20260905182502 | 23 | 67 | 4.8 | 4.8 | 0.00 | 0.00 | 0.00 | 83 | 1015.9 |
| 20260905182003 | 23 | 47 | 1.6 | 6.4 | 0.00 | 0.00 | 0.00 | 83 | 1016.3 |
| 20260905181503 | 22 | 32 | 3.2 | 4.8 | 0.00 | 0.00 | 0.00 | 84 | 1016.3 |
| 20260905181003 | 23 | 28 | 3.2 | 4.8 | 0.00 | 0.00 | 0.00 | 83 | 1015.9 |
| 20260905180503 | 23 | 84 | 4.8 | 4.8 | 0.00 | 0.00 | 0.00 | 81 | 1015.9 |
| 20260905180003 | 23 | 29 | 3.2 | 4.8 | 0.00 | 0.00 | 0.00 | 80 | 1015.9 |
| 20260905175503 | 23 | 46 | 3.2 | 4.8 | 0.00 | 0.00 | 0.00 | 83 | 1016.3 |
| 20260905175003 | 22 | 44 | 4.8 | 4.8 | 0.00 | 0.00 | 0.00 | 83 | 1016.3 |
| 20260905174503 | 23 | 31 | 4.8 | 4.8 | 0.00 | 0.00 | 0.00 | 83 | 1015.9 |
| 20260905174003 | 22 | 162 | 1.6 | 4.8 | 0.00 | 0.00 | 0.00 | 84 | 1015.9 |
| 20260905173503 | 22 | 294 | 3.2 | 3.2 | 0.00 | 0.00 | 0.00 | 83 | 1016.3 |
| 20260905173003 | 22 | 217 | 0.0 | 1.6 | 0.00 | 0.00 | 0.00 | 84 | 1016.3 |
| 20260905172502 | 22 | 52 | 3.2 | 4.8 | 0.00 | 0.00 | 0.00 | 85 | 1016.3 |
| 20260905172003 | 22 | 8 | 3.2 | 4.8 | 0.00 | 0.00 | 0.00 | 84 | 1016.3 |
| 20260905171503 | 22 | 68 | 0.0 | 3.2 | 0.00 | 0.00 | 0.00 | 85 | 1016.3 |
| 20260905171003 | 22 | 38 | 6.4 | 6.4 | 0.00 | 0.00 | 0.00 | 85 | 1016.3 |
| 20260905170503 | 22 | 16 | 4.8 | 6.4 | 0.00 | 0.00 | 0.00 | 85 | 1016.3 |
| 20260905170003 | 22 | 115 | 0.0 | 1.6 | 0.00 | 0.00 | 0.00 | 85 | 1016.3 |
| 20260905165503 | 22 | 65 | 1.6 | 4.8 | 0.00 | 0.00 | 0.00 | 85 | 1016.3 |
| 20260905165003 | 22 | 3 | 0.0 | 3.2 | 0.00 | 0.00 | 0.00 | 86 | 1016.3 |
| 20260905164503 | 22 | 0 | 0.0 | 4.8 | 0.00 | 0.00 | 0.00 | 86 | 1016.6 |
| 20260905164003 | 22 | 80 | 4.8 | 4.8 | 0.00 | 0.00 | 0.00 | 87 | 1016.3 |
| 20260905163503 | 22 | 176 | 0.0 | 3.2 | 0.00 | 0.00 | 0.00 | 87 | 1016.3 |
| 20260905163003 | 21 | 79 | 1.6 | 4.8 | 0.00 | 0.00 | 0.00 | 87 | 1016.3 |
| 20260905162502 | 22 | 359 | 4.8 | 6.4 | 0.00 | 0.00 | 0.00 | 87 | 1016.3 |
| 20260905162003 | 22 | 337 | 4.8 | 4.8 | 0.00 | 0.00 | 0.00 | 87 | 1016.3 |